Location: Daerah Kuala Lumpur
(3.1167°N, 101.6833°E)
Time: 17:58:19
(UTC+00:00)

CBERS-1 - Pass Details

Date: 05 August 2024
Orbit: 766 x 775 km, 98.8° (Epoch: 18 September)

Event Time Altitude Azimuth Distance (km) Brightness Sun altitude
Rises 21:13:22 0° 18° (NNE) 3,222 7.8 -28.9°
Reaches altitude 10° 21:15:41 10° 22° (NNE) 2,297 7.0 -28.4°
Maximum altitude 21:20:41 62° 103° (ESE) 855 4.3 -27.2°
Enters shadow 21:22:04 45° 160° (SSE) 1,039 4.6 -26.9°
